29-04-2022, 00:00:06,     30,    0.0,    5.8,   0.00,   0.00, 1027.2,   80.8, -999.0
29-04-2022, 00:00:16,     30,    0.0,    5.7,   0.00,   0.00, 1027.1,   80.9, -999.0
29-04-2022, 00:00:26,     30,    0.0,    5.8,   0.00,   0.00, 1027.1,   80.9, -999.0
29-04-2022, 00:00:36,     31,    0.0,    5.8,   0.00,   0.00, 1027.1,   81.1, -999.0
29-04-2022, 00:00:45,     30,    0.0,    5.8,   0.00,   0.00, 1027.2,   81.0, -999.0
29-04-2022, 00:00:56,     30,    0.0,    5.8,   0.00,   0.00, 1027.1,   80.9, -999.0
29-04-2022, 00:01:06,     30,    0.0,    5.8,   0.00,   0.00, 1027.2,   80.8, -999.0
29-04-2022, 00:01:15,     30,    0.0,    5.7,   0.00,   0.00, 1027.2,   80.9, -999.0
29-04-2022, 00:01:26,     30,    0.0,    5.8,   0.00,   0.00, 1027.1,   80.8, -999.0
29-04-2022, 00:01:36,     30,    0.0,    5.8,   0.00,   0.00, 1027.1,   80.9, -999.0
29-04-2022, 00:01:45,     30,    0.0,    5.9,   0.00,   0.00, 1027.1,   80.9, -999.0
29-04-2022, 00:01:55,     30,    0.0,    5.8,   0.00,   0.00, 1027.1,   80.8, -999.0
29-04-2022, 00:02:06,     30,    0.0,    5.8,   0.00,   0.00, 1027.1,   80.8, -999.0
29-04-2022, 00:02:15,     31,    0.0,    5.8,   0.00,   0.00, 1027.1,   80.9, -999.0
29-04-2022, 00:02:25,     30,    0.0,    5.8,   0.00,   0.00, 1027.1,   80.9, -999.0
29-04-2022, 00:02:35,     31,    0.0,    5.9,   0.00,   0.00, 1027.1,   80.8, -999.0
29-04-2022, 00:02:45,     30,    0.0,    5.9,   0.00,   0.00, 1027.1,   80.8, -999.0
29-04-2022, 00:02:55,     30,    0.0,    5.9,   0.00,   0.00, 1027.1,   80.8, -999.0
29-04-2022, 00:03:05,     30,    0.0,    5.8,   0.00,   0.00, 1027.1,   80.8, -999.0
29-04-2022, 00:03:15,     30,    0.0,    5.8,   0.00,   0.00, 1027.1,   80.9, -999.0
29-04-2022, 00:03:25,     30,    0.0,    5.8,   0.00,   0.00, 1027.1,   80.9, -999.0
29-04-2022, 00:03:35,     30,    0.0,    5.9,   0.00,   0.00, 1027.1,   80.8, -999.0
29-04-2022, 00:03:45,     30,    0.0,    5.8,   0.00,   0.00, 1027.1,   80.9, -999.0
29-04-2022, 00:03:55,     30,    0.0,    5.9,   0.00,   0.00, 1027.1,   81.0, -999.0
29-04-2022, 00:04:05,     30,    0.0,    6.0,   0.00,   0.00, 1027.1,   80.9, -999.0
29-04-2022, 00:04:15,     30,    0.0,    5.9,   0.00,   0.00, 1027.1,   80.8, -999.0
29-04-2022, 00:04:25,     30,    0.0,    5.8,   0.00,   0.00, 1027.1,   80.7, -999.0
29-04-2022, 00:04:36,     30,    0.0,    5.9,   0.00,   0.00, 1027.1,   80.8, -999.0
29-04-2022, 00:04:45,     31,    0.0,    5.7,   0.00,   0.00, 1027.2,   80.6, -999.0
29-04-2022, 00:04:54,     30,    0.0,    5.8,   0.00,   0.00, 1027.1,   80.6, -999.0
29-04-2022, 00:05:04,     30,    0.0,    5.9,   0.00,   0.00, 1027.1,   80.5, -999.0
29-04-2022, 00:05:15,     30,    0.0,    5.8,   0.00,   0.00, 1027.1,   80.6, -999.0
29-04-2022, 00:05:24,     30,    0.0,    5.8,   0.00,   0.00, 1027.1,   80.4, -999.0
29-04-2022, 00:05:34,     30,    0.0,    5.6,   0.00,   0.00, 1027.1,   80.5, -999.0
29-04-2022, 00:05:44,     30,    0.0,    5.8,   0.00,   0.00, 1027.1,   80.4, -999.0
29-04-2022, 00:05:54,     30,    0.0,    5.8,   0.00,   0.00, 1027.1,   80.5, -999.0
29-04-2022, 00:06:04,     30,    0.0,    5.8,   0.00,   0.00, 1027.1,   80.5, -999.0
29-04-2022, 00:06:14,     31,    0.0,    5.7,   0.00,   0.00, 1027.1,   80.5, -999.0
29-04-2022, 00:06:24,     30,    0.0,    5.7,   0.00,   0.00, 1027.1,   80.5, -999.0
29-04-2022, 00:06:34,     30,    0.0,    5.8,   0.00,   0.00, 1027.1,   80.6, -999.0
29-04-2022, 00:06:44,     30,    0.0,    5.8,   0.00,   0.00, 1027.1,   80.6, -999.0
29-04-2022, 00:06:54,     30,    0.0,    5.8,   0.00,   0.00, 1027.1,   80.5, -999.0
29-04-2022, 00:07:04,     30,    0.0,    5.9,   0.00,   0.00, 1027.1,   80.7, -999.0
29-04-2022, 00:07:14,     20,    0.0,    5.9,   0.00,   0.00, 1027.1,   80.7, -999.0
29-04-2022, 00:07:24,     20,    0.0,    5.8,   0.00,   0.00, 1027.1,   80.6, -999.0
29-04-2022, 00:07:34,     24,    0.0,    5.8,   0.00,   0.00, 1027.1,   80.6, -999.0
29-04-2022, 00:07:44,     34,    0.0,    5.9,   0.00,   0.00, 1027.1,   80.6, -999.0
29-04-2022, 00:07:54,     34,    0.0,    5.9,   0.00,   0.00, 1027.1,   80.6, -999.0
29-04-2022, 00:08:04,     34,    0.0,    5.8,   0.00,   0.00, 1027.1,   80.6, -999.0
29-04-2022, 00:08:13,     34,    0.0,    5.8,   0.00,   0.00, 1027.1,   80.4, -999.0
29-04-2022, 00:08:24,     34,    0.0,    5.7,   0.00,   0.00, 1027.1,   80.5, -999.0
29-04-2022, 00:08:34,     34,    0.0,    5.8,   0.00,   0.00, 1027.1,   80.4, -999.0
29-04-2022, 00:08:43,     34,    0.0,    5.9,   0.00,   0.00, 1027.1,   80.4, -999.0
29-04-2022, 00:08:54,     34,    0.0,    5.8,   0.00,   0.00, 1027.1,   80.4, -999.0
29-04-2022, 00:09:03,     34,    0.0,    5.8,   0.00,   0.00, 1027.1,   80.5, -999.0
29-04-2022, 00:09:13,     34,    0.0,    5.9,   0.00,   0.00, 1027.1,   80.6, -999.0
29-04-2022, 00:09:23,     34,    0.0,    5.8,   0.00,   0.00, 1027.1,   80.4, -999.0
29-04-2022, 00:09:34,     34,    0.0,    5.7,   0.00,   0.00, 1027.1,   80.3, -999.0
29-04-2022, 00:09:43,     34,    0.0,    5.8,   0.00,   0.00, 1027.1,   80.3, -999.0
29-04-2022, 00:09:53,     34,    0.0,    5.7,   0.00,   0.00, 1027.1,   80.4, -999.0
29-04-2022, 00:10:03,     34,    0.0,    5.8,   0.00,   0.00, 1027.1,   80.4, -999.0
29-04-2022, 00:10:13,     17,    0.3,    5.8,   0.00,   0.00, 1027.2,   80.5, -999.0
29-04-2022, 00:10:23,     17,    0.1,    5.8,   0.00,   0.00, 1027.1,   80.5, -999.0
29-04-2022, 00:10:33,     16,    0.0,    5.8,   0.00,   0.00, 1027.1,   80.4, -999.0
29-04-2022, 00:10:43,     16,    0.0,    5.7,   0.00,   0.00, 1027.1,   80.3, -999.0
29-04-2022, 00:10:53,     17,    0.0,    5.7,   0.00,   0.00, 1027.1,   80.3, -999.0
29-04-2022, 00:11:03,     16,    0.1,    5.7,   0.00,   0.00, 1027.1,   80.6, -999.0
29-04-2022, 00:11:13,      0,    0.6,    5.9,   0.00,   0.00, 1027.2,   80.9, -999.0
29-04-2022, 00:11:23,      1,    0.0,    5.8,   0.00,   0.00, 1027.1,   80.7, -999.0
29-04-2022, 00:11:33,      1,    0.0,    5.9,   0.00,   0.00, 1027.1,   80.6, -999.0
29-04-2022, 00:11:43,      3,    0.0,    5.8,   0.00,   0.00, 1027.1,   80.7, -999.0
29-04-2022, 00:11:52,      3,    0.1,    5.8,   0.00,   0.00, 1027.1,   80.8, -999.0
29-04-2022, 00:12:03,      7,    0.5,    5.8,   0.00,   0.00, 1027.2,   80.8, -999.0
29-04-2022, 00:12:13,     17,    0.7,    5.8,   0.00,   0.00, 1027.2,   80.7, -999.0
29-04-2022, 00:12:22,     17,    0.0,    5.7,   0.00,   0.00, 1027.2,   80.4, -999.0
29-04-2022, 00:12:32,     17,    0.0,    5.7,   0.00,   0.00, 1027.1,   80.4, -999.0
29-04-2022, 00:12:42,     22,    0.0,    5.7,   0.00,   0.00, 1027.2,   80.6, -999.0
29-04-2022, 00:12:52,     23,    0.3,    5.8,   0.00,   0.00, 1027.2,   80.7, -999.0
29-04-2022, 00:13:02,     22,    0.0,    5.7,   0.00,   0.00, 1027.1,   80.5, -999.0
29-04-2022, 00:13:12,     22,    0.0,    5.7,   0.00,   0.00, 1027.1,   80.5, -999.0
29-04-2022, 00:13:22,     22,    0.0,    5.4,   0.00,   0.00, 1027.1,   80.5, -999.0
29-04-2022, 00:13:32,     23,    0.0,    5.7,   0.00,   0.00, 1027.1,   80.5, -999.0
29-04-2022, 00:13:42,     22,    0.0,    5.7,   0.00,   0.00, 1027.1,   80.7, -999.0
29-04-2022, 00:13:52,     23,    0.0,    5.6,   0.00,   0.00, 1027.1,   80.5, -999.0
29-04-2022, 00:14:02,     22,    0.0,    5.7,   0.00,   0.00, 1027.1,   80.6, -999.0
29-04-2022, 00:14:12,     58,    0.5,    5.7,   0.00,   0.00, 1027.1,   81.0, -999.0
29-04-2022, 00:14:22,     58,    0.6,    5.9,   0.00,   0.00, 1027.2,   81.4, -999.0
29-04-2022, 00:14:32,     58,    0.0,    5.8,   0.00,   0.00, 1027.1,   81.1, -999.0
29-04-2022, 00:14:42,     58,    0.0,    5.8,   0.00,   0.00, 1027.0,   80.7, -999.0
29-04-2022, 00:14:52,     58,    0.0,    5.8,   0.00,   0.00, 1027.1,   80.5, -999.0
29-04-2022, 00:15:01,     58,    0.0,    5.7,   0.00,   0.00, 1027.1,   80.5, -999.0
29-04-2022, 00:15:12,     58,    0.0,    5.6,   0.00,   0.00, 1027.1,   80.3, -999.0
29-04-2022, 00:15:22,     58,    0.0,    5.6,   0.00,   0.00, 1027.1,   80.5, -999.0
29-04-2022, 00:15:31,     58,    0.0,    5.6,   0.00,   0.00, 1027.1,   80.5, -999.0
29-04-2022, 00:15:41,     58,    0.0,    5.6,   0.00,   0.00, 1027.0,   80.5, -999.0
29-04-2022, 00:15:52,     58,    0.0,    5.7,   0.00,   0.00, 1027.1,   80.7, -999.0
29-04-2022, 00:16:01,     58,    0.0,    5.7,   0.00,   0.00, 1027.1,   80.7, -999.0
29-04-2022, 00:16:11,     57,    0.0,    5.8,   0.00,   0.00, 1027.1,   80.6, -999.0
29-04-2022, 00:16:21,     58,    0.0,    5.7,   0.00,   0.00, 1027.1,   80.6, -999.0
29-04-2022, 00:16:31,     58,    0.0,    5.7,   0.00,   0.00, 1027.1,   80.6, -999.0
29-04-2022, 00:16:41,     58,    0.0,    5.7,   0.00,   0.00, 1027.1,   80.8, -999.0
29-04-2022, 00:16:51,     58,    0.0,    5.7,   0.00,   0.00, 1027.1,   80.8, -999.0
29-04-2022, 00:17:01,     58,    0.0,    5.7,   0.00,   0.00, 1027.1,   80.8, -999.0
29-04-2022, 00:17:11,     58,    0.0,    5.7,   0.00,   0.00, 1027.1,   80.7, -999.0
29-04-2022, 00:17:21,     28,    0.4,    5.7,   0.00,   0.00, 1027.2,   81.0, -999.0
29-04-2022, 00:17:31,     27,    0.2,    5.7,   0.00,   0.00, 1027.1,   80.8, -999.0
29-04-2022, 00:17:41,     27,    0.0,    5.6,   0.00,   0.00, 1027.1,   80.7, -999.0
29-04-2022, 00:17:51,     27,    0.0,    5.6,   0.00,   0.00, 1027.1,   80.8, -999.0
29-04-2022, 00:18:01,     28,    0.0,    5.7,   0.00,   0.00, 1027.1,   80.8, -999.0
29-04-2022, 00:18:11,     27,    0.0,    5.7,   0.00,   0.00, 1027.1,   80.9, -999.0
29-04-2022, 00:18:21,     28,    0.0,    5.7,   0.00,   0.00, 1027.1,   80.8, -999.0
29-04-2022, 00:18:31,     28,    0.0,    5.7,   0.00,   0.00, 1027.1,   80.8, -999.0
29-04-2022, 00:18:41,     27,    0.0,    5.6,   0.00,   0.00, 1027.1,   80.7, -999.0
29-04-2022, 00:18:50,     27,    0.0,    5.6,   0.00,   0.00, 1027.1,   80.6, -999.0
29-04-2022, 00:19:01,     27,    0.0,    5.6,   0.00,   0.00, 1027.1,   80.6, -999.0
29-04-2022, 00:19:10,     28,    0.0,    5.6,   0.00,   0.00, 1027.1,   80.6, -999.0
29-04-2022, 00:19:20,     27,    0.0,    5.6,   0.00,   0.00, 1027.1,   80.5, -999.0
29-04-2022, 00:19:31,     28,    0.0,    5.6,   0.00,   0.00, 1027.1,   80.7, -999.0
29-04-2022, 00:19:40,     27,    0.0,    5.5,   0.00,   0.00, 1027.1,   80.8, -999.0
29-04-2022, 00:19:50,     27,    0.0,    5.6,   0.00,   0.00, 1027.1,   81.0, -999.0
29-04-2022, 00:20:00,     27,    0.0,    5.6,   0.00,   0.00, 1027.0,   81.0, -999.0
29-04-2022, 00:20:10,     27,    0.0,    5.7,   0.00,   0.00, 1027.1,   80.9, -999.0
29-04-2022, 00:20:20,     27,    0.0,    5.6,   0.00,   0.00, 1027.0,   80.9, -999.0
29-04-2022, 00:20:30,     27,    0.0,    5.6,   0.00,   0.00, 1027.1,   80.9, -999.0
29-04-2022, 00:20:40,     27,    0.0,    5.6,   0.00,   0.00, 1027.0,   80.8, -999.0
29-04-2022, 00:20:50,     27,    0.0,    5.6,   0.00,   0.00, 1027.1,   80.9, -999.0
29-04-2022, 00:21:00,     27,    0.0,    5.6,   0.00,   0.00, 1027.0,   80.9, -999.0
29-04-2022, 00:21:10,     27,    0.0,    5.7,   0.00,   0.00, 1027.0,   81.0, -999.0
29-04-2022, 00:21:20,     27,    0.0,    5.7,   0.00,   0.00, 1027.0,   81.0, -999.0
29-04-2022, 00:21:30,     27,    0.0,    5.7,   0.00,   0.00, 1027.0,   80.9, -999.0
29-04-2022, 00:21:40,     27,    0.0,    5.7,   0.00,   0.00, 1027.0,   81.1, -999.0
29-04-2022, 00:21:50,     27,    0.0,    5.7,   0.00,   0.00, 1027.0,   81.1, -999.0
29-04-2022, 00:22:00,     27,    0.0,    5.7,   0.00,   0.00, 1027.0,   81.1, -999.0
29-04-2022, 00:22:10,     27,    0.0,    5.7,   0.00,   0.00, 1027.0,   81.2, -999.0
29-04-2022, 00:22:20,     27,    0.0,    5.7,   0.00,   0.00, 1027.0,   81.2, -999.0
29-04-2022, 00:22:29,     27,    0.0,    5.6,   0.00,   0.00, 1027.0,   81.0, -999.0
29-04-2022, 00:22:40,     27,    0.0,    5.7,   0.00,   0.00, 1027.0,   81.0, -999.0
29-04-2022, 00:22:50,     27,    0.0,    5.8,   0.00,   0.00, 1027.0,   81.3, -999.0
29-04-2022, 00:22:59,     27,    0.0,    5.8,   0.00,   0.00, 1027.0,   81.3, -999.0
29-04-2022, 00:23:09,     28,    0.0,    5.9,   0.00,   0.00, 1027.0,   81.2, -999.0
29-04-2022, 00:23:19,     28,    0.0,    5.9,   0.00,   0.00, 1027.0,   81.4, -999.0
29-04-2022, 00:23:29,     28,    0.0,    5.9,   0.00,   0.00, 1027.0,   81.2, -999.0
29-04-2022, 00:23:39,     27,    0.0,    5.9,   0.00,   0.00, 1027.0,   81.2, -999.0
29-04-2022, 00:23:49,     28,    0.0,    5.9,   0.00,   0.00, 1027.0,   81.0, -999.0
29-04-2022, 00:23:59,     27,    0.0,    5.9,   0.00,   0.00, 1027.0,   81.0, -999.0
29-04-2022, 00:24:09,     27,    0.0,    5.9,   0.00,   0.00, 1027.0,   81.0, -999.0
29-04-2022, 00:24:19,     28,    0.0,    5.9,   0.00,   0.00, 1027.0,   81.0, -999.0
29-04-2022, 00:24:29,     28,    0.0,    5.9,   0.00,   0.00, 1027.0,   80.9, -999.0
29-04-2022, 00:24:39,     27,    0.0,    5.9,   0.00,   0.00, 1027.0,   80.8, -999.0
29-04-2022, 00:24:49,     27,    0.0,    5.8,   0.00,   0.00, 1027.0,   80.7, -999.0
29-04-2022, 00:24:59,     28,    0.0,    5.7,   0.00,   0.00, 1026.9,   80.7, -999.0
29-04-2022, 00:25:09,     27,    0.0,    5.8,   0.00,   0.00, 1026.9,   80.7, -999.0
29-04-2022, 00:25:19,     28,    0.0,    5.8,   0.00,   0.00, 1026.9,   80.6, -999.0
29-04-2022, 00:25:29,     28,    0.0,    5.8,   0.00,   0.00, 1027.0,   80.6, -999.0
29-04-2022, 00:25:38,     27,    0.0,    5.8,   0.00,   0.00, 1026.9,   80.7, -999.0
29-04-2022, 00:25:49,     28,    0.0,    5.9,   0.00,   0.00, 1026.9,   80.8, -999.0
29-04-2022, 00:25:59,     28,    0.0,    5.9,   0.00,   0.00, 1026.9,   80.9, -999.0
29-04-2022, 00:26:08,     28,    0.0,    5.9,   0.00,   0.00, 1026.9,   80.8, -999.0
29-04-2022, 00:26:19,     28,    0.0,    5.9,   0.00,   0.00, 1026.9,   81.0, -999.0
29-04-2022, 00:26:29,     28,    0.0,    5.9,   0.00,   0.00, 1026.9,   80.9, -999.0
29-04-2022, 00:26:38,     28,    0.0,    5.9,   0.00,   0.00, 1026.9,   80.8, -999.0
29-04-2022, 00:26:48,     28,    0.0,    5.9,   0.00,   0.00, 1026.9,   80.7, -999.0
29-04-2022, 00:26:58,     28,    0.0,    5.8,   0.00,   0.00, 1026.9,   80.5, -999.0
29-04-2022, 00:27:08,     28,    0.0,    5.9,   0.00,   0.00, 1026.9,   80.4, -999.0
29-04-2022, 00:27:18,     27,    0.0,    5.9,   0.00,   0.00, 1026.9,   80.4, -999.0
29-04-2022, 00:27:28,     27,    0.0,    5.8,   0.00,   0.00, 1026.9,   80.4, -999.0
29-04-2022, 00:27:38,     28,    0.0,    5.7,   0.00,   0.00, 1026.9,   80.4, -999.0
29-04-2022, 00:27:48,     27,    0.0,    5.9,   0.00,   0.00, 1027.0,   80.5, -999.0
29-04-2022, 00:27:58,     27,    0.0,    5.8,   0.00,   0.00, 1026.9,   80.5, -999.0
29-04-2022, 00:28:08,     28,    0.0,    5.7,   0.00,   0.00, 1026.9,   80.5, -999.0
29-04-2022, 00:28:18,     28,    0.7,    5.8,   0.00,   0.00, 1027.0,   80.5, -999.0
29-04-2022, 00:28:28,     28,    0.3,    5.8,   0.00,   0.00, 1027.0,   80.4, -999.0
29-04-2022, 00:28:38,     28,    0.1,    5.7,   0.00,   0.00, 1027.0,   80.5, -999.0
29-04-2022, 00:28:48,     27,    0.1,    5.7,   0.00,   0.00, 1027.0,   80.4, -999.0
29-04-2022, 00:28:58,     27,    0.0,    5.7,   0.00,   0.00, 1026.9,   80.5, -999.0
29-04-2022, 00:29:08,     27,    0.0,    5.6,   0.00,   0.00, 1026.9,   80.4, -999.0
29-04-2022, 00:29:17,     27,    0.0,    5.7,   0.00,   0.00, 1026.9,   80.5, -999.0
29-04-2022, 00:29:28,     28,    0.0,    5.7,   0.00,   0.00, 1026.9,   80.6, -999.0
29-04-2022, 00:29:38,     27,    0.0,    5.7,   0.00,   0.00, 1026.9,   80.6, -999.0
29-04-2022, 00:29:47,     27,    0.0,    5.7,   0.00,   0.00, 1026.9,   80.7, -999.0
29-04-2022, 00:29:57,     27,    0.0,    5.7,   0.00,   0.00, 1026.9,   80.8, -999.0
29-04-2022, 00:30:08,     27,    0.0,    5.7,   0.00,   0.00, 1026.9,   80.8, -999.0
29-04-2022, 00:30:17,     27,    0.0,    5.6,   0.00,   0.00, 1026.9,   80.7, -999.0
29-04-2022, 00:30:27,     27,    0.0,    5.7,   0.00,   0.00, 1026.9,   80.8, -999.0
29-04-2022, 00:30:37,     27,    0.0,    5.7,   0.00,   0.00, 1026.9,   80.8, -999.0
29-04-2022, 00:30:47,     28,    0.0,    5.7,   0.00,   0.00, 1026.9,   80.6, -999.0
29-04-2022, 00:30:57,     46,    0.4,    5.8,   0.00,   0.00, 1026.9,   80.8, -999.0
29-04-2022, 00:31:07,     46,    0.0,    5.7,   0.00,   0.00, 1026.9,   81.0, -999.0
29-04-2022, 00:31:17,     46,    0.2,    5.8,   0.00,   0.00, 1026.9,   81.2, -999.0
29-04-2022, 00:31:27,     46,    0.0,    5.7,   0.00,   0.00, 1026.9,   80.7, -999.0
29-04-2022, 00:31:37,     46,    0.0,    5.7,   0.00,   0.00, 1026.8,   80.5, -999.0
29-04-2022, 00:31:47,     46,    0.0,    5.6,   0.00,   0.00, 1026.9,   80.6, -999.0
29-04-2022, 00:31:57,     46,    0.0,    5.6,   0.00,   0.00, 1026.9,   80.6, -999.0
29-04-2022, 00:32:07,     46,    0.0,    5.6,   0.00,   0.00, 1026.9,   80.8, -999.0
29-04-2022, 00:32:17,     46,    0.0,    5.7,   0.00,   0.00, 1026.9,   80.9, -999.0
29-04-2022, 00:32:26,     46,    0.0,    5.8,   0.00,   0.00, 1026.9,   81.2, -999.0
29-04-2022, 00:32:37,     46,    0.1,    5.9,   0.00,   0.00, 1026.9,   81.5, -999.0
29-04-2022, 00:32:47,     46,    0.4,    5.9,   0.00,   0.00, 1027.0,   81.3, -999.0
29-04-2022, 00:32:56,     46,    0.4,    5.8,   0.00,   0.00, 1027.0,   81.2, -999.0
29-04-2022, 00:33:07,     46,    0.6,    5.8,   0.00,   0.00, 1027.0,   81.1, -999.0
29-04-2022, 00:33:17,     46,    0.0,    5.6,   0.00,   0.00, 1026.9,   80.6, -999.0
29-04-2022, 00:33:26,     46,    0.0,    5.7,   0.00,   0.00, 1026.9,   80.6, -999.0
29-04-2022, 00:33:36,     46,    0.0,    5.6,   0.00,   0.00, 1026.8,   80.7, -999.0
29-04-2022, 00:33:47,     46,    0.0,    5.6,   0.00,   0.00, 1026.8,   80.7, -999.0
29-04-2022, 00:33:56,     46,    0.0,    5.6,   0.00,   0.00, 1026.8,   80.8, -999.0
29-04-2022, 00:34:06,     46,    0.0,    5.7,   0.00,   0.00, 1026.8,   80.9, -999.0
29-04-2022, 00:34:16,     46,    0.0,    5.7,   0.00,   0.00, 1026.9,   80.8, -999.0
29-04-2022, 00:34:26,     45,    0.0,    5.6,   0.00,   0.00, 1026.8,   80.9, -999.0
29-04-2022, 00:34:36,     46,    0.0,    5.6,   0.00,   0.00, 1026.8,   80.9, -999.0
29-04-2022, 00:34:46,     46,    0.0,    5.6,   0.00,   0.00, 1026.8,   80.9, -999.0
29-04-2022, 00:34:56,     46,    0.0,    5.6,   0.00,   0.00, 1026.8,   81.0, -999.0
29-04-2022, 00:35:06,     46,    0.0,    5.7,   0.00,   0.00, 1026.8,   80.9, -999.0
29-04-2022, 00:35:16,     46,    0.0,    5.7,   0.00,   0.00, 1026.8,   80.9, -999.0
29-04-2022, 00:35:26,     46,    0.0,    5.8,   0.00,   0.00, 1026.8,   81.1, -999.0
29-04-2022, 00:35:36,     46,    0.0,    5.7,   0.00,   0.00, 1026.8,   81.2, -999.0
29-04-2022, 00:35:46,     46,    0.0,    5.7,   0.00,   0.00, 1026.8,   81.1, -999.0
29-04-2022, 00:35:56,     46,    0.0,    5.7,   0.00,   0.00, 1026.8,   81.0, -999.0
29-04-2022, 00:36:06,     46,    0.0,    5.7,   0.00,   0.00, 1026.8,   81.1, -999.0
29-04-2022, 00:36:16,     46,    0.0,    5.7,   0.00,   0.00, 1026.8,   81.0, -999.0
29-04-2022, 00:36:26,     46,    0.0,    5.7,   0.00,   0.00, 1026.8,   81.2, -999.0
29-04-2022, 00:36:35,     46,    0.0,    5.8,   0.00,   0.00, 1026.8,   81.2, -999.0
29-04-2022, 00:36:45,     46,    0.0,    5.8,   0.00,   0.00, 1026.8,   81.2, -999.0
29-04-2022, 00:36:56,     46,    0.0,    5.8,   0.00,   0.00, 1026.8,   81.3, -999.0
29-04-2022, 00:37:05,     46,    0.0,    5.8,   0.00,   0.00, 1026.8,   81.2, -999.0
29-04-2022, 00:37:15,     46,    0.0,    5.8,   0.00,   0.00, 1026.8,   81.2, -999.0
29-04-2022, 00:37:25,     46,    0.0,    5.7,   0.00,   0.00, 1026.8,   80.9, -999.0
29-04-2022, 00:37:35,     46,    0.0,    5.7,   0.00,   0.00, 1026.8,   80.8, -999.0
29-04-2022, 00:37:45,     46,    0.0,    5.6,   0.00,   0.00, 1026.8,   80.8, -999.0
29-04-2022, 00:37:55,     46,    0.0,    5.7,   0.00,   0.00, 1026.8,   80.7, -999.0
29-04-2022, 00:38:05,     46,    0.0,    5.6,   0.00,   0.00, 1026.8,   80.9, -999.0
29-04-2022, 00:38:15,     45,    0.0,    5.6,   0.00,   0.00, 1026.8,   80.7, -999.0
29-04-2022, 00:38:25,     46,    0.0,    5.6,   0.00,   0.00, 1026.8,   80.8, -999.0
29-04-2022, 00:38:35,     46,    0.0,    5.5,   0.00,   0.00, 1026.8,   80.9, -999.0
29-04-2022, 00:38:45,     46,    0.0,    5.6,   0.00,   0.00, 1026.8,   80.9, -999.0
29-04-2022, 00:38:55,     45,    0.0,    5.6,   0.00,   0.00, 1026.8,   80.9, -999.0
29-04-2022, 00:39:05,     46,    0.0,    5.6,   0.00,   0.00, 1026.8,   80.9, -999.0
29-04-2022, 00:39:15,     45,    0.0,    5.6,   0.00,   0.00, 1026.8,   81.0, -999.0
29-04-2022, 00:39:25,     46,    0.0,    5.7,   0.00,   0.00, 1026.8,   81.1, -999.0
29-04-2022, 00:39:35,     46,    0.0,    5.6,   0.00,   0.00, 1026.8,   81.2, -999.0
29-04-2022, 00:39:45,     46,    0.0,    5.7,   0.00,   0.00, 1026.8,   81.2, -999.0
29-04-2022, 00:39:55,     46,    0.0,    5.6,   0.00,   0.00, 1026.8,   81.1, -999.0
29-04-2022, 00:40:05,     46,    0.0,    5.6,   0.00,   0.00, 1026.8,   80.9, -999.0
29-04-2022, 00:40:14,     46,    0.0,    5.6,   0.00,   0.00, 1026.8,   81.2, -999.0
29-04-2022, 00:40:24,     46,    0.0,    5.7,   0.00,   0.00, 1026.8,   81.2, -999.0
29-04-2022, 00:40:35,     46,    0.0,    5.6,   0.00,   0.00, 1026.8,   81.1, -999.0
29-04-2022, 00:40:44,     46,    0.0,    5.6,   0.00,   0.00, 1026.8,   81.3, -999.0
29-04-2022, 00:40:54,     46,    0.0,    5.7,   0.00,   0.00, 1026.9,   81.3, -999.0
29-04-2022, 00:41:04,     46,    0.0,    5.6,   0.00,   0.00, 1026.9,   81.2, -999.0
29-04-2022, 00:41:14,     46,    0.0,    5.5,   0.00,   0.00, 1026.8,   81.1, -999.0
29-04-2022, 00:41:24,     46,    0.0,    5.5,   0.00,   0.00, 1026.8,   81.0, -999.0
29-04-2022, 00:41:34,     46,    0.0,    5.6,   0.00,   0.00, 1026.8,   81.2, -999.0
29-04-2022, 00:41:44,     46,    0.0,    5.6,   0.00,   0.00, 1026.8,   81.2, -999.0
29-04-2022, 00:41:54,     46,    0.0,    5.6,   0.00,   0.00, 1026.8,   81.3, -999.0
29-04-2022, 00:42:04,     46,    0.0,    5.6,   0.00,   0.00, 1026.8,   81.3, -999.0
29-04-2022, 00:42:14,     46,    0.0,    5.5,   0.00,   0.00, 1026.8,   81.3, -999.0
29-04-2022, 00:42:24,     46,    0.0,    5.5,   0.00,   0.00, 1026.8,   81.3, -999.0
29-04-2022, 00:42:34,     46,    0.0,    5.6,   0.00,   0.00, 1026.8,   81.3, -999.0
29-04-2022, 00:42:44,     46,    0.0,    5.6,   0.00,   0.00, 1026.8,   81.3, -999.0
29-04-2022, 00:42:54,     46,    0.0,    5.6,   0.00,   0.00, 1026.8,   81.4, -999.0
29-04-2022, 00:43:04,     46,    0.0,    5.6,   0.00,   0.00, 1026.8,   81.2, -999.0
29-04-2022, 00:43:14,     46,    0.0,    5.6,   0.00,   0.00, 1026.8,   81.2, -999.0
29-04-2022, 00:43:24,     46,    0.0,    5.6,   0.00,   0.00, 1026.8,   81.4, -999.0
29-04-2022, 00:43:33,     46,    0.0,    5.6,   0.00,   0.00, 1026.8,   81.5, -999.0
29-04-2022, 00:43:44,     46,    0.0,    5.6,   0.00,   0.00, 1026.8,   81.4, -999.0
29-04-2022, 00:43:53,     46,    0.0,    5.6,   0.00,   0.00, 1026.8,   81.4, -999.0
29-04-2022, 00:44:03,     46,    0.0,    5.6,   0.00,   0.00, 1026.8,   81.5, -999.0
29-04-2022, 00:44:13,     46,    0.0,    5.3,   0.00,   0.00, 1026.8,   81.2, -999.0
29-04-2022, 00:44:23,     46,    0.0,    5.5,   0.00,   0.00, 1026.8,   81.4, -999.0
29-04-2022, 00:44:33,     46,    0.0,    5.6,   0.00,   0.00, 1026.8,   81.3, -999.0
29-04-2022, 00:44:43,     46,    0.0,    5.5,   0.00,   0.00, 1026.8,   81.4, -999.0
29-04-2022, 00:44:53,     46,    0.0,    5.5,   0.00,   0.00, 1026.8,   81.4, -999.0
29-04-2022, 00:45:03,     46,    0.0,    5.5,   0.00,   0.00, 1026.8,   81.2, -999.0
29-04-2022, 00:45:13,     46,    0.0,    5.5,   0.00,   0.00, 1026.8,   81.3, -999.0
29-04-2022, 00:45:23,     46,    0.0,    5.5,   0.00,   0.00, 1026.8,   81.3, -999.0
29-04-2022, 00:45:33,     46,    0.0,    5.5,   0.00,   0.00, 1026.8,   81.3, -999.0
29-04-2022, 00:45:43,     46,    0.0,    5.5,   0.00,   0.00, 1026.7,   81.4, -999.0
29-04-2022, 00:45:53,     46,    0.0,    5.5,   0.00,   0.00, 1026.8,   81.4, -999.0
29-04-2022, 00:46:03,     46,    0.0,    5.5,   0.00,   0.00, 1026.8,   81.5, -999.0
29-04-2022, 00:46:13,     46,    0.0,    5.5,   0.00,   0.00, 1026.7,   81.5, -999.0
29-04-2022, 00:46:23,     46,    0.0,    5.5,   0.00,   0.00, 1026.8,   81.6, -999.0
29-04-2022, 00:46:33,     46,    0.0,    5.3,   0.00,   0.00, 1026.8,   81.5, -999.0
29-04-2022, 00:46:42,     46,    0.0,    5.5,   0.00,   0.00, 1026.8,   81.6, -999.0